TimeAKST,TemperatureF,Dew PointF,Humidity,Sea Level PressureIn,VisibilityMPH,Wind Direction,Wind SpeedMPH,Gust SpeedMPH,PrecipitationIn,Events,Conditions,WindDirDegrees,DateUTC
12:53 AM,36.0,32.0,86,29.98,10.0,Calm,Calm,-,N/A,,Scattered Clouds,0,2014-01-26 09:53:00
1:53 AM,35.1,30.9,85,29.97,10.0,Calm,Calm,-,N/A,,Scattered Clouds,0,2014-01-26 10:53:00
3:53 AM,34.0,30.0,85,29.92,10.0,ESE,8.1,-,N/A,,Partly Cloudy,110,2014-01-26 12:53:00
4:53 AM,37.0,30.9,79,29.91,10.0,NW,11.5,-,N/A,,Partly Cloudy,310,2014-01-26 13:53:00
5:53 AM,36.0,30.9,82,29.93,10.0,Variable,4.6,-,N/A,,Scattered Clouds,0,2014-01-26 14:53:00
6:53 AM,36.0,30.9,82,29.96,10.0,Variable,3.5,-,N/A,,Mostly Cloudy,0,2014-01-26 15:53:00
7:53 AM,37.0,30.9,79,29.96,10.0,Calm,Calm,-,N/A,,Overcast,0,2014-01-26 16:53:00
8:53 AM,37.0,32.0,82,29.99,10.0,Variable,4.6,-,N/A,,Mostly Cloudy,0,2014-01-26 17:53:00
9:53 AM,37.0,32.0,82,30.02,10.0,Calm,Calm,-,N/A,,Overcast,0,2014-01-26 18:53:00
10:53 AM,37.0,32.0,82,30.00,10.0,SE,3.5,-,N/A,,Overcast,130,2014-01-26 19:53:00
11:53 AM,42.1,32.0,67,29.99,10.0,WSW,5.8,16.1,N/A,,Mostly Cloudy,250,2014-01-26 20:53:00
12:53 PM,41.0,32.0,70,30.02,10.0,WNW,6.9,-,N/A,,Mostly Cloudy,290,2014-01-26 21:53:00
1:53 PM,41.0,33.1,73,30.02,10.0,Calm,Calm,-,N/A,,Mostly Cloudy,0,2014-01-26 22:53:00
2:53 PM,39.0,33.1,79,30.01,10.0,WSW,3.5,-,N/A,,Clear,250,2014-01-26 23:53:00
3:53 PM,37.9,33.1,83,29.99,10.0,NW,5.8,-,N/A,,Overcast,320,2014-01-27 00:53:00
4:53 PM,37.0,33.1,86,30.01,10.0,South,3.5,-,N/A,,Mostly Cloudy,180,2014-01-27 01:53:00
5:53 PM,37.0,33.1,86,30.03,10.0,Calm,Calm,-,N/A,,Overcast,0,2014-01-27 02:53:00
6:53 PM,36.0,32.0,86,30.01,10.0,North,4.6,-,N/A,,Clear,10,2014-01-27 03:53:00
7:53 PM,35.1,32.0,89,29.99,10.0,Calm,Calm,-,N/A,,Clear,0,2014-01-27 04:53:00
8:53 PM,34.0,30.9,89,29.99,10.0,Calm,Calm,-,N/A,,Clear,0,2014-01-27 05:53:00
9:53 PM,33.1,30.0,89,29.96,10.0,Calm,Calm,-,N/A,,Clear,0,2014-01-27 06:53:00
10:53 PM,30.0,27.0,88,29.95,10.0,Calm,Calm,-,N/A,,Clear,0,2014-01-27 07:53:00
11:53 PM,30.9,28.0,89,29.93,10.0,ESE,4.6,-,N/A,,Clear,120,2014-01-27 08:53:00